FW6148 Weather Reports


Display with metric or nautical units.
time (UTC)temp
F
wind
direction
speed
MPH
gust
MPH
rain 1hr
in
rain 24hr
in
rain mn
in
humidity
%
barometer
mb
20260510102026 38 242 2.0 4.0 0.00 0.33 0.00 86 1019.9
20260510101542 38 242 2.0 4.0 0.00 0.33 0.00 86 1019.9
20260510101024 38 242 2.0 3.0 0.00 0.33 0.00 87 1019.9
20260510100524 38 241 0.0 2.0 0.00 0.33 0.00 87 1019.9
20260510100039 39 0 0.0 2.0 0.00 0.33 0.00 86 1019.9
20260510095527 39 241 0.0 3.0 0.00 0.33 0.00 86 1019.8
20260510095028 39 0 0.0 3.0 0.00 0.33 0.00 85 1019.9
20260510094540 40 241 1.0 3.0 0.00 0.33 0.00 85 1019.9
20260510094027 40 241 0.0 2.0 0.00 0.33 0.00 85 1019.9
20260510093527 41 0 0.0 3.0 0.00 0.33 0.00 86 1019.9
20260510093038 41 0 0.0 6.0 0.00 0.33 0.00 84 1019.9
20260510092527 42 242 1.0 6.0 0.00 0.33 0.00 84 1019.9
20260510092026 42 244 3.0 6.0 0.00 0.33 0.00 84 1019.8
20260510091545 43 257 3.0 7.0 0.00 0.33 0.00 83 1019.8
20260510091026 43 265 3.0 8.0 0.00 0.33 0.00 83 1019.8
20260510090528 43 240 4.0 8.0 0.00 0.33 0.00 84 1019.8
20260510090042 43 246 5.0 8.0 0.00 0.33 0.00 84 1019.8
20260510085528 43 281 4.0 9.0 0.00 0.33 0.00 84 1019.8
20260510085028 43 234 4.0 9.0 0.00 0.33 0.00 84 1019.9
20260510084540 43 218 4.0 6.0 0.00 0.33 0.00 85 1019.9
20260510084028 42 234 3.0 5.0 0.00 0.33 0.00 85 1019.9
20260510083532 43 244 2.0 6.0 0.00 0.33 0.00 85 1020.0
20260510083038 42 247 3.0 8.0 0.00 0.33 0.00 86 1019.9
20260510082527 42 240 4.0 8.0 0.00 0.33 0.00 89 1019.9
20260510082027 41 262 2.0 4.0 0.00 0.33 0.00 87 1020.0
20260510081542 40 269 2.0 4.0 0.00 0.33 0.00 88 1020.1
20260510081029 40 248 0.0 2.0 0.00 0.33 0.00 88 1020.1
20260510080530 40 0 0.0 0.0 0.00 0.33 0.00 88 1020.0
20260510080037 41 0 0.0 2.0 0.00 0.33 0.00 87 1020.0
20260510075527 41 0 0.0 2.0 0.00 0.33 0.00 88 1020.0
20260510075027 41 248 1.0 2.0 0.00 0.33 0.00 86 1020.1
20260510074543 41 0 0.0 2.0 0.00 0.33 0.00 86 1020.1
20260510074026 41 0 0.0 4.0 0.00 0.33 0.00 86 1020.1
20260510073530 41 0 1.0 4.0 0.00 0.33 0.00 87 1020.2
20260510073041 41 247 1.0 4.0 0.00 0.33 0.00 86 1020.1
20260510072528 42 247 2.0 4.0 0.00 0.33 0.00 86 1020.1
20260510072027 42 263 2.0 7.0 0.00 0.33 0.00 87 1020.1
20260510071539 42 262 2.0 7.0 0.00 0.33 0.00 87 1020.1
20260510071027 42 262 3.0 6.0 0.00 0.33 0.00 88 1020.1
20260510070530 42 255 2.0 4.0 0.00 0.33 0.00 88 1020.1
20260510070040 42 267 2.0 5.0 0.00 0.33 0.00 89 1020.2
20260510065531 41 255 2.0 5.0 0.00 0.33 0.00 88 1020.3
20260510065030 42 247 2.0 5.0 0.00 0.33 0.00 89 1020.2
20260510064537 42 260 1.0 3.0 0.00 0.33 0.00 89 1020.2
20260510064028 42 260 2.0 3.0 0.00 0.33 0.00 90 1020.3
20260510063528 42 260 1.0 3.0 0.00 0.33 0.00 90 1020.4
20260510063039 41 260 1.0 3.0 0.00 0.33 0.00 90 1020.4
20260510062528 41 0 0.0 0.0 0.00 0.33 0.00 89 1020.4
20260510062028 42 0 0.0 0.0 0.00 0.33 0.00 89 1020.5
20260510061542 42 0 0.0 0.0 0.00 0.33 0.00 89 1020.6
20260510061027 42 0 0.0 0.0 0.00 0.33 0.00 88 1020.6
20260510060525 43 0 0.0 2.0 0.00 0.33 0.00 89 1020.4
20260510060051 43 0 0.0 2.0 0.00 0.33 0.00 89 1020.3
20260510055523 43 0 0.0 2.0 0.00 0.33 0.33 89 1020.5
20260510055028 43 0 0.0 2.0 0.00 0.33 0.33 89 1020.5
20260510054540 43 0 0.0 3.0 0.00 0.33 0.33 89 1020.4
20260510054027 43 260 0.0 3.0 0.00 0.33 0.33 90 1020.3
20260510053527 43 260 1.0 3.0 0.00 0.33 0.33 89 1020.2
20260510053037 43 0 0.0 2.0 0.00 0.33 0.33 89 1020.3
20260510052527 43 0 0.0 3.0 0.00 0.33 0.33 88 1020.5
20260510052027 43 0 1.0 4.0 0.00 0.33 0.33 88 1020.4
20260510051547 43 260 1.0 4.0 0.00 0.33 0.33 89 1020.5
20260510051028 43 260 1.0 4.0 0.00 0.33 0.33 90 1020.6
20260510050527 42 259 2.0 4.0 0.00 0.33 0.33 90 1020.6
20260510050047 42 254 1.0 3.0 0.00 0.33 0.33 89 1020.7
20260510045531 42 254 1.0 3.0 0.00 0.33 0.33 90 1020.6
20260510045027 41 254 1.0 3.0 0.00 0.33 0.33 90 1020.6
20260510044545 41 254 2.0 3.0 0.00 0.33 0.33 89 1020.6
20260510044030 41 254 1.0 4.0 0.00 0.33 0.33 89 1020.6
20260510043524 41 254 1.0 5.0 0.00 0.33 0.33 89 1020.6
20260510043102 41 253 2.0 5.0 0.00 0.33 0.33 89 1020.5
20260510042528 40 242 3.0 5.0 0.00 0.33 0.33 89 1020.6
20260510042027 40 286 1.0 3.0 0.00 0.33 0.33 88 1020.6
20260510041538 40 270 0.0 3.0 0.00 0.33 0.33 88 1020.6
20260510041028 41 0 0.0 3.0 0.00 0.33 0.33 88 1020.6
20260510040528 41 0 0.0 4.0 0.00 0.33 0.33 86 1020.6
20260510040039 41 249 2.0 4.0 0.00 0.33 0.33 88 1020.6
20260510035528 41 194 2.0 4.0 0.00 0.33 0.33 87 1020.6
20260510035032 41 108 0.0 3.0 0.00 0.33 0.33 85 1020.5
20260510034543 42 0 0.0 2.0 0.00 0.33 0.33 84 1020.6
20260510034027 42 0 0.0 3.0 0.00 0.33 0.33 84 1020.6
20260510033527 43 108 1.0 3.0 0.00 0.33 0.33 83 1020.5
20260510033040 44 108 2.0 3.0 0.00 0.33 0.33 82 1020.4
20260510032528 45 107 0.0 2.0 0.00 0.33 0.33 81 1020.4
20260510032027 46 0 0.0 0.0 0.00 0.33 0.33 81 1020.3
20260510031613 46 0 0.0 3.0 0.00 0.33 0.33 80 1020.3
20260510031027 47 0 0.0 3.0 0.00 0.33 0.33 79 1020.2
20260510030526 47 107 2.0 3.0 0.00 0.33 0.33 79 1020.3
20260510030039 47 107 0.0 3.0 0.00 0.33 0.33 79 1020.1
20260510025528 48 107 1.0 3.0 0.00 0.33 0.33 78 1020.1
20260510025030 48 107 1.0 6.0 0.00 0.33 0.33 77 1019.9
20260510024541 49 107 2.0 6.0 0.00 0.33 0.33 76 1019.8
20260510024027 49 108 3.0 8.0 0.00 0.33 0.33 75 1019.7
20260510023527 49 109 4.0 8.0 0.00 0.33 0.33 75 1019.6
20260510023046 48 126 5.0 8.0 0.00 0.33 0.33 76 1019.5
20260510022529 48 133 3.0 6.0 0.00 0.33 0.33 77 1019.3
20260510022031 49 88 2.0 7.0 0.00 0.33 0.33 76 1019.2
20260510021546 49 88 2.0 8.0 0.00 0.33 0.33 75 1019.0
20260510021027 50 75 3.0 9.0 0.00 0.33 0.33 73 1018.9
20260510020527 50 77 4.0 9.0 0.00 0.33 0.33 73 1018.9
20260510020039 50 68 4.0 9.0 0.00 0.33 0.33 73 1018.9
20260510015526 50 56 4.0 12.0 0.00 0.33 0.33 73 1018.9
20260510015026 50 49 4.0 12.0 0.00 0.33 0.33 74 1018.8
20260510014538 50 66 3.0 9.0 0.00 0.33 0.33 74 1018.9
20260510014028 50 82 4.0 9.0 0.00 0.33 0.33 73 1018.8
20260510013527 50 44 4.0 9.0 0.00 0.33 0.33 73 1018.8
20260510013039 51 50 5.0 10.0 0.00 0.33 0.33 72 1018.7
20260510012528 52 54 5.0 10.0 0.00 0.33 0.33 70 1018.7
20260510012027 53 49 5.0 9.0 0.00 0.33 0.33 69 1018.6
20260510011548 53 49 4.0 9.0 0.00 0.33 0.33 69 1018.6
20260510011030 53 79 4.0 9.0 0.00 0.33 0.33 69 1018.4
20260510010524 54 58 4.0 9.0 0.00 0.33 0.33 69 1018.3
20260510010044 54 55 6.0 10.0 0.00 0.33 0.33 68 1018.5
20260510005527 54 73 5.0 10.0 0.00 0.33 0.33 68 1018.4
20260510005027 54 74 4.0 11.0 0.00 0.33 0.33 70 1018.3
20260510004542 54 61 4.0 13.0 0.00 0.33 0.33 70 1018.1
20260510004032 53 76 8.0 14.0 0.00 0.33 0.33 68 1018.2
20260510003529 53 53 9.0 14.0 0.00 0.33 0.33 69 1018.2
20260510003039 53 44 7.0 14.0 0.00 0.33 0.33 71 1018.2
20260510002528 52 62 6.0 15.0 0.00 0.33 0.33 72 1018.1
20260510002029 52 53 8.0 15.0 0.00 0.33 0.33 72 1018.1
20260510001538 53 47 8.0 14.0 0.00 0.33 0.33 71 1018.1
20260510001028 53 41 7.0 14.0 0.00 0.33 0.33 73 1018.0
20260510000527 53 36 7.0 14.0 0.00 0.33 0.33 72 1018.1
20260510000037 53 63 8.0 15.0 0.05 0.33 0.33 73 1018.0
20260509235528 53 49 8.0 15.0 0.05 0.33 0.33 74 1017.9
20260509235027 53 72 9.0 15.0 0.05 0.33 0.33 72 1017.9
20260509234538 53 50 8.0 15.0 0.05 0.33 0.33 76 1017.9
20260509234029 53 55 8.0 14.0 0.05 0.33 0.33 76 1017.8
20260509233527 53 58 7.0 14.0 0.05 0.33 0.33 80 1017.8
20260509233044 52 49 8.0 14.0 0.05 0.33 0.33 80 1017.8
20260509232527 51 63 6.0 14.0 0.05 0.33 0.33 81 1017.8
20260509232027 50 63 7.0 14.0 0.05 0.33 0.33 83 1017.9
20260509231541 50 84 5.0 11.0 0.05 0.33 0.33 85 1018.1
20260509231026 49 79 6.0 19.0 0.05 0.33 0.33 82 1018.1
20260509230527 51 90 9.0 19.0 0.05 0.33 0.33 79 1018.1
20260509230038 53 56 4.0 7.0 0.00 0.28 0.28 79 1017.8
20260509225528 53 46 1.0 3.0 0.00 0.28 0.28 78 1017.5
20260509225026 53 0 0.0 0.0 0.00 0.28 0.28 80 1017.5
20260509224538 53 0 0.0 0.0 0.01 0.28 0.28 80 1017.5
20260509224028 53 0 0.0 0.0 0.01 0.28 0.28 81 1017.4
20260509223526 52 0 0.0 1.0 0.01 0.28 0.28 82 1017.3
20260509223039 52 0 0.0 3.0 0.01 0.28 0.28 83 1017.4
20260509222524 51 0 0.0 3.0 0.02 0.28 0.28 83 1017.4
20260509222025 51 157 1.0 3.0 0.02 0.28 0.28 83 1017.5
20260509221543 50 0 0.0 3.0 0.02 0.28 0.28 84 1017.5
20260509221025 50 157 0.0 6.0 0.02 0.28 0.28 84 1017.5
20260509220525 50 157 1.0 6.0 0.02 0.28 0.28 83 1017.5
20260509220045 49 150 3.0 8.0 0.03 0.28 0.28 84 1017.5
20260509215528 49 175 2.0 9.0 0.03 0.28 0.28 84 1017.7
20260509215025 49 144 5.0 10.0 0.04 0.28 0.28 84 1017.8
20260509214540 50 99 4.0 10.0 0.04 0.27 0.27 84 1017.8
20260509214025 50 139 4.0 7.0 0.05 0.27 0.27 84 1017.6
20260509213525 49 92 1.0 6.0 0.08 0.27 0.27 84 1017.6
20260509213052 49 91 2.0 6.0 0.10 0.27 0.27 83 1017.6
20260509212524 48 55 3.0 6.0 0.10 0.26 0.26 85 1017.7
20260509212025 47 0 1.0 6.0 0.10 0.26 0.26 87 1017.7
20260509211605 47 0 2.0 6.0 0.10 0.26 0.26 86 1017.6
20260509211025 46 136 2.0 6.0 0.10 0.26 0.26 87 1017.8
20260509210525 46 44 1.0 6.0 0.11 0.26 0.26 86 1017.7
20260509210038 46 62 3.0 6.0 0.10 0.25 0.25 86 1017.8
20260509205525 46 50 0.0 4.0 0.10 0.25 0.25 87 1017.9
20260509205025 46 76 1.0 7.0 0.14 0.24 0.24 86 1017.9
20260509204556 46 76 2.0 7.0 0.19 0.23 0.23 85 1018.0
20260509204028 47 95 4.0 8.0 0.21 0.22 0.22 85 1017.9
20260509203524 47 59 4.0 8.0 0.18 0.19 0.19 85 1017.9
20260509203046 48 71 1.0 4.0 0.15 0.16 0.16 85 1017.9
20260509202525 47 0 0.0 1.0 0.15 0.16 0.16 85 1017.5
20260509202025 47 0 0.0 4.0 0.15 0.16 0.16 83 1017.5
20260509201538 47 0 0.0 6.0 0.15 0.16 0.16 84 1017.4
20260509201024 46 167 1.0 6.0 0.15 0.16 0.16 81 1017.4
20260509200526 46 72 0.0 7.0 0.14 0.15 0.15 81 1017.3
20260509200039 47 46 3.0 8.0 0.14 0.15 0.15 78 1017.2
20260509195526 48 146 3.0 8.0 0.14 0.15 0.15 76 1017.0
20260509195025 50 107 4.0 17.0 0.08 0.09 0.09 74 1017.0
20260509194541 54 84 11.0 17.0 0.02 0.03 0.03 67 1016.9
20260509194024 57 69 4.0 11.0 0.00 0.01 0.01 67 1016.5
20260509193525 58 52 3.0 10.0 0.00 0.01 0.01 67 1016.3
20260509193038 57 327 3.0 13.0 0.00 0.01 0.01 72 1016.2
20260509192527 56 299 5.0 13.0 0.00 0.01 0.01 69 1016.2
20260509192024 56 53 6.0 12.0 0.00 0.01 0.01 70 1016.2
20260509191544 55 38 5.0 12.0 0.00 0.01 0.01 71 1016.2
20260509191030 55 52 6.0 13.0 0.00 0.01 0.01 72 1016.3
20260509190527 55 34 6.0 13.0 0.00 0.01 0.01 72 1016.3
20260509190046 55 35 5.0 13.0 0.00 0.01 0.01 74 1016.4
20260509185527 55 101 4.0 13.0 0.00 0.01 0.01 73 1016.5
20260509185027 55 112 5.0 13.0 0.00 0.01 0.01 74 1016.4
20260509184538 55 103 4.0 13.0 0.00 0.01 0.01 73 1016.6
20260509184027 55 103 7.0 13.0 0.00 0.01 0.01 73 1016.7
20260509183531 55 42 6.0 12.0 0.00 0.01 0.01 74 1016.7
20260509183039 55 72 6.0 13.0 0.00 0.01 0.01 75 1016.9
20260509182526 54 92 6.0 13.0 0.00 0.01 0.01 80 1017.0
20260509182026 54 59 7.0 14.0 0.00 0.01 0.01 80 1017.0
20260509181538 52 57 6.0 14.0 0.00 0.01 0.01 82 1017.0
20260509181029 50 57 9.0 14.0 0.00 0.01 0.01 82 1017.0
20260509180528 50 65 7.0 12.0 0.00 0.01 0.01 82 1016.9
20260509180037 50 53 5.0 15.0 0.00 0.01 0.01 83 1016.9
20260509175527 50 46 9.0 17.0 0.00 0.01 0.01 81 1016.9
20260509175027 51 58 7.0 18.0 0.00 0.01 0.01 81 1016.8
20260509174542 51 42 12.0 18.0 0.00 0.01 0.01 79 1016.7
20260509174030 53 57 5.0 12.0 0.00 0.01 0.01 76 1016.4
20260509173527 52 93 5.0 13.0 0.00 0.01 0.01 80 1016.4
20260509173041 52 90 5.0 13.0 0.00 0.01 0.01 80 1016.4
20260509172530 52 35 7.0 13.0 0.00 0.01 0.01 78 1016.7
20260509172027 52 66 7.0 12.0 0.00 0.01 0.01 77 1016.7
20260509171539 52 78 4.0 12.0 0.00 0.01 0.01 77 1016.6
20260509171026 52 62 5.0 11.0 0.00 0.01 0.01 78 1016.5
20260509170526 52 64 5.0 11.0 0.00 0.01 0.01 81 1016.4
20260509170038 51 80 5.0 13.0 0.00 0.01 0.01 80 1016.4
20260509165527 51 52 6.0 13.0 0.00 0.01 0.01 81 1016.4
20260509165026 51 360 6.0 13.0 0.00 0.01 0.01 81 1016.4
20260509164545 50 66 7.0 15.0 0.01 0.01 0.01 81 1016.4
20260509164027 50 71 6.0 15.0 0.01 0.01 0.01 81 1016.3
20260509163527 50 74 9.0 15.0 0.01 0.01 0.01 81 1016.3
20260509163054 51 63 8.0 13.0 0.01 0.01 0.01 82 1016.2
20260509162527 50 78 5.0 12.0 0.01 0.01 0.01 83 1016.1
20260509162027 50 76 5.0 12.0 0.01 0.01 0.01 84 1016.0
20260509161540 50 52 6.0 12.0 0.01 0.01 0.01 84 1016.1
20260509161031 49 13 6.0 14.0 0.01 0.01 0.01 85 1016.1
20260509160528 49 57 8.0 14.0 0.01 0.01 0.01 84 1016.1
20260509160039 49 63 9.0 14.0 0.01 0.01 0.01 84 1016.1
20260509155527 49 49 9.0 14.0 0.01 0.01 0.01 84 1016.0
20260509155031 49 51 9.0 15.0 0.01 0.01 0.01 84 1015.9
20260509154538 49 65 9.0 15.0 0.00 0.00 0.00 83 1015.8
20260509154026 49 74 9.0 15.0 0.00 0.00 0.00 82 1015.7
20260509153528 49 65 7.0 16.0 0.00 0.00 0.00 80 1015.6
20260509153051 50 88 6.0 17.0 0.00 0.00 0.00 78 1015.5
20260509152527 51 360 9.0 17.0 0.00 0.00 0.00 75 1015.4
20260509152027 52 360 8.0 15.0 0.00 0.00 0.00 72 1015.4
20260509151545 52 71 7.0 18.0 0.00 0.00 0.00 71 1015.2
20260509151027 53 360 8.0 18.0 0.00 0.00 0.00 70 1015.1
20260509150526 53 34 9.0 18.0 0.00 0.00 0.00 68 1015.0
20260509150054 53 118 7.0 18.0 0.00 0.00 0.00 70 1015.0
20260509145527 53 53 10.0 18.0 0.00 0.00 0.00 70 1014.9
20260509145027 54 55 10.0 15.0 0.00 0.00 0.00 68 1014.7
20260509144539 54 47 7.0 13.0 0.00 0.00 0.00 67 1014.7
20260509144026 54 41 7.0 12.0 0.00 0.00 0.00 66 1014.6
20260509143527 54 73 7.0 12.0 0.00 0.00 0.00 66 1014.4
20260509143040 54 51 6.0 12.0 0.00 0.00 0.00 67 1014.4
20260509142527 54 46 5.0 9.0 0.00 0.00 0.00 67 1014.2
20260509142024 54 48 5.0 11.0 0.00 0.00 0.00 67 1014.3
20260509141538 54 42 4.0 11.0 0.00 0.00 0.00 67 1014.1
20260509141024 53 46 4.0 11.0 0.00 0.00 0.00 68 1014.0
20260509140527 53 38 4.0 10.0 0.00 0.00 0.00 68 1013.8
20260509140041 53 40 3.0 10.0 0.00 0.00 0.00 69 1013.7
20260509135530 53 30 2.0 11.0 0.00 0.00 0.00 67 1013.7
20260509135026 53 22 3.0 15.0 0.00 0.00 0.00 67 1013.7
20260509134548 53 29 8.0 15.0 0.00 0.00 0.00 66 1013.8
20260509134026 53 54 9.0 15.0 0.00 0.00 0.00 66 1013.7
20260509133524 53 40 5.0 10.0 0.00 0.00 0.00 68 1013.8
20260509133050 53 41 4.0 12.0 0.00 0.00 0.00 68 1013.6
20260509132527 53 9 5.0 12.0 0.00 0.00 0.00 67 1013.6
20260509132026 53 69 6.0 12.0 0.00 0.00 0.00 68 1013.7
20260509131541 53 42 6.0 11.0 0.00 0.00 0.00 67 1013.6
20260509131026 53 32 7.0 14.0 0.00 0.00 0.00 67 1013.5
20260509130526 53 55 7.0 14.0 0.00 0.00 0.00 67 1013.4
20260509130038 53 51 7.0 14.0 0.00 0.00 0.00 68 1013.5
20260509125525 53 55 7.0 13.0 0.00 0.00 0.00 67 1013.3
20260509125023 53 36 8.0 16.0 0.00 0.00 0.00 67 1013.3
20260509124539 53 59 8.0 16.0 0.00 0.00 0.00 66 1013.2
20260509124025 53 39 8.0 16.0 0.00 0.00 0.00 66 1013.0
20260509123527 53 71 8.0 16.0 0.00 0.00 0.00 65 1012.9
20260509123046 53 67 9.0 16.0 0.00 0.00 0.00 65 1012.9
20260509122526 53 49 8.0 15.0 0.00 0.00 0.00 66 1012.9
20260509122028 53 61 10.0 15.0 0.00 0.00 0.00 65 1012.8
20260509121541 53 360 10.0 16.0 0.00 0.00 0.00 66 1012.8
20260509121027 53 360 9.0 16.0 0.00 0.00 0.00 66 1012.7
20260509120523 53 65 7.0 12.0 0.00 0.00 0.00 66 1012.6
20260509120038 53 78 6.0 11.0 0.00 0.00 0.00 67 1012.4
20260509115526 53 58 6.0 10.0 0.00 0.00 0.00 67 1012.4
20260509115026 52 360 5.0 10.0 0.00 0.00 0.00 68 1012.3
20260509114547 52 360 5.0 12.0 0.00 0.00 0.00 69 1012.4
20260509114025 52 360 6.0 12.0 0.00 0.00 0.00 68 1012.3
20260509113523 52 360 6.0 12.0 0.00 0.00 0.00 69 1012.3
20260509113040 53 360 7.0 16.0 0.00 0.00 0.00 68 1012.3
20260509112527 53 360 8.0 18.0 0.00 0.00 0.00 67 1012.2
20260509112027 54 360 11.0 18.0 0.00 0.00 0.00 64 1012.2
20260509111537 53 360 11.0 17.0 0.00 0.00 0.00 64 1012.1
20260509111027 53 360 12.0 18.0 0.00 0.00 0.00 65 1012.0
20260509110526 53 360 11.0 18.0 0.00 0.00 0.00 65 1012.0
20260509110040 53 360 9.0 15.0 0.00 0.00 0.00 65 1012.0
20260509105531 53 360 9.0 15.0 0.00 0.00 0.00 66 1012.0
20260509105027 53 360 9.0 14.0 0.00 0.00 0.00 65 1012.0
20260509104538 54 360 9.0 15.0 0.00 0.00 0.00 65 1011.9
20260509104026 54 360 10.0 17.0 0.00 0.00 0.00 64 1011.9
20260509103524 54 360 10.0 17.0 0.00 0.00 0.00 64 1011.9
20260509103038 54 360 9.0 16.0 0.00 0.00 0.00 63 1012.0
20260509102527 54 360 9.0 17.0 0.00 0.00 0.00 62 1011.9